Trenton, NJ

1:18 AM EDT on July 27, 2017 (GMT -0400)
Trenton Mercer

Weather History for KTTN - June, 2014

Change the Weather History Date:

Tuesday, June 3, 2014

  Actual Average Record
Temperature  
Mean Temperature 74 °F 67 °F  
Max Temperature 88 °F 77 °F 97 °F (1895)
Min Temperature 59 °F 56 °F 45 °F (1929)
Degree Days  
Heating Degree Days 0 2  
Month to date heating degree days 3 6  
Since 1 June heating degree days 3 6  
Since 1 July heating degree days 5477 5142  
Cooling Degree Days 9 4  
Month to date cooling degree days 9 11  
Year to date cooling degree days 53 68  
Since 1 June cooling degree days 9 11  
Growing Degree Days 24 (Base 50)    
Moisture  
Dew Point 63 °F    
Average Humidity 71    
Maximum Humidity 93    
Minimum Humidity 48    
Precipitation  
Precipitation 0.17 in 0.17 in 1.80 in (1995)
Month to date precipitation 0.17 0.48  
Year to date precipitation 20.50 18.00  
Sea Level Pressure  
Sea Level Pressure 29.90 in    
Wind  
Wind Speed 3 mph (SW)    
Max Wind Speed 20 mph    
Max Gust Speed 33 mph    
Visibility 8 miles    
Events Rain , Thunderstorm    
T = Trace of Precipitation, MM = Missing Value Source: NWS Daily Summary

Daily Weather History Graph

Daily Weather History Graph

Search for Another Location

Airport or City:

Trip Planner

Search our weather history database for the weather conditions in past years. The results will help you decide how hot, cold, wet, or windy it might be!

Date:

Astronomy

Jun. 03, 2014 Rise Set
Actual Time 5:30 AM EDT 8:24 PM EDT
Civil Twilight 4:58 AM EDT 8:56 PM EDT
Nautical Twilight 4:17 AM EDT 9:37 PM EDT
Astronomical Twilight 3:30 AM EDT 10:25 PM EDT
Moon 10:52 AM EDT (6/3) No Moon Set
Length of Visible Light 15h 58m
Length of Day
14h 53m
Waxing Crescent, 30% of the Moon is Illuminated
Jun 3
Waxing Crescent
Jun 5
First Quarter
Jun 13
Full
Jun 19
Last Quarter
Jun 27
New

Hourly Weather History & Observations

Time (EDT) Temp. Heat Index Dew Point Humidity Pressure Visibility Wind Dir Wind Speed Gust Speed Precip Events Conditions
12:53 AM 66.0 °F - 53.1 °F 63% 30.02 in 10.0 mi Calm Calm - N/A   Clear
1:53 AM 64.0 °F - 54.0 °F 70% 30.01 in 10.0 mi Calm Calm - N/A   Clear
2:53 AM 63.0 °F - 54.0 °F 72% 30.00 in 10.0 mi Calm Calm - N/A   Clear
3:53 AM 63.0 °F - 55.0 °F 75% 29.99 in 10.0 mi SW 3.5 mph - N/A   Clear
4:53 AM 61.0 °F - 54.0 °F 78% 29.99 in 10.0 mi SW 3.5 mph - N/A   Clear
5:53 AM 61.0 °F - 55.0 °F 81% 29.98 in 10.0 mi Calm Calm - N/A   Clear
6:53 AM 63.0 °F - 55.9 °F 78% 29.98 in 10.0 mi SW 3.5 mph - N/A   Clear
7:53 AM 66.9 °F - 57.9 °F 73% 29.97 in 10.0 mi SSW 4.6 mph - N/A   Partly Cloudy
8:53 AM 71.1 °F - 59.0 °F 66% 29.96 in 10.0 mi West 5.8 mph - N/A   Clear
9:53 AM 75.0 °F - 62.1 °F 64% 29.94 in 10.0 mi Variable 4.6 mph - N/A   Clear
10:53 AM 79.0 °F - 63.0 °F 58% 29.93 in 10.0 mi Calm Calm - N/A   Clear
11:53 AM 82.9 °F 84.6 °F 64.9 °F 54% 29.92 in 10.0 mi Variable 4.6 mph - N/A   Clear
12:53 PM 84.9 °F 86.1 °F 64.0 °F 49% 29.90 in 10.0 mi Variable 4.6 mph - N/A   Partly Cloudy
1:53 PM 86.0 °F 87.6 °F 64.9 °F 49% 29.87 in 10.0 mi SSW 8.1 mph - N/A   Clear
2:53 PM 84.9 °F 85.9 °F 63.0 °F 48% 29.83 in 10.0 mi SSW 4.6 mph - N/A   Scattered Clouds
3:39 PM 82.9 °F 84.6 °F 64.9 °F 54% 29.85 in 10.0 mi SW 9.2 mph - N/A Thunderstorm Overcast
3:51 PM 75.2 °F - 64.4 °F 69% 29.88 in 9.0 mi WSW 16.1 mph 31.1 mph N/A Thunderstorm Thunderstorm
3:53 PM 75.0 °F - 66.0 °F 73% 29.87 in 9.0 mi WSW 12.7 mph 31.1 mph N/A Thunderstorm Thunderstorm
4:13 PM 70.0 °F - 66.0 °F 87% 29.88 in 1.8 mi West 9.2 mph 19.6 mph 0.06 in Rain , Thunderstorm Heavy Thunderstorms and Rain
4:27 PM 70.0 °F - 66.0 °F 87% 29.87 in 1.8 mi Variable 3.5 mph - 0.13 in Rain , Thunderstorm Heavy Rain
4:39 PM 71.1 °F - 66.9 °F 87% 29.86 in 3.0 mi Calm Calm - 0.15 in Rain , Thunderstorm Light Rain
4:53 PM 72.0 °F - 66.9 °F 84% 29.84 in 5.0 mi Calm Calm - 0.17 in Rain , Thunderstorm Light Rain
5:01 PM 72.0 °F - 68.0 °F 87% 29.86 in 9.0 mi Calm Calm - 0.00 in Rain Light Rain
5:53 PM 73.9 °F - 69.1 °F 85% 29.82 in 9.0 mi SSW 3.5 mph - 0.00 in   Mostly Cloudy
6:53 PM 73.9 °F - 70.0 °F 87% 29.82 in 8.0 mi Calm Calm - N/A   Partly Cloudy
7:53 PM 75.9 °F - 70.0 °F 82% 29.81 in 8.0 mi Calm Calm - N/A   Scattered Clouds
8:53 PM 72.0 °F - 70.0 °F 93% 29.80 in 7.0 mi SSW 3.5 mph - N/A   Clear
9:53 PM 71.1 °F - 69.1 °F 93% 29.82 in 5.0 mi SSE 3.5 mph - N/A   Clear
11:53 PM 68.0 °F - 66.0 °F 93% 29.79 in 6.0 mi SW 4.6 mph - N/A   Scattered Clouds